Seretse Khama, Botswana

7:21 AM CAT on February 14, 2016 (GMT +0200)
Sir Seretse Khama International

Weather History for FBSK - May, 2013

Change the Weather History Date:

Saturday, May 11, 2013

  Actual Average Record
Temperature  
Mean Temperature 68 °F -  
Max Temperature 78 °F 73 °F 87 °F (2008)
Min Temperature 57 °F 43 °F 35 °F (2006)
Cooling Degree Days 2    
Growing Degree Days 18 (Base 50)    
Moisture  
Dew Point 46 °F    
Average Humidity 51    
Maximum Humidity 72    
Minimum Humidity 20    
Precipitation  
Precipitation 0.00 in - - ()
Sea Level Pressure  
Sea Level Pressure 30.15 in    
Wind  
Wind Speed 8 mph ()    
Max Wind Speed 16 mph    
Max Gust Speed -    
Visibility 6.2 miles    
Events      
Averages and records for this station are not official NWS values.
T = Trace of Precipitation, MM = Missing Value Source: Averaged Metar Reports

Daily Weather History Graph

Daily Weather History Graph

Search for Another Location

Airport or City:

Trip Planner

Search our weather history database for the weather conditions in past years. The results will help you decide how hot, cold, wet, or windy it might be!

Date:

Astronomy

May. 11, 2013 Rise Set
Actual Time 6:42 AM CAT 5:42 PM CAT
Civil Twilight 6:18 AM CAT 6:06 PM CAT
Nautical Twilight 5:51 AM CAT 6:33 PM CAT
Astronomical Twilight 5:24 AM CAT 7:00 PM CAT
Moon 7:47 AM CAT (5/11) 6:53 PM CAT (5/11)
Length of Visible Light 11h 47m
Length of Day
10h 59m
New Moon, 2% of the Moon is Illuminated
May 11
New Moon
May 18
First Quarter
May 25
Full
May 31
Last Quarter
Jun 8
New

Hourly Weather History & Observations

Time (CAT) Temp. Dew Point Humidity Pressure Visibility Wind Dir Wind Speed Gust Speed Precip Events Conditions
12:00 AM 66.2 °F 39.2 °F 37% 30.09 in - ENE 6.9 mph - N/A   Clear
1:00 AM 64.4 °F 39.2 °F 40% 30.09 in - NE 6.9 mph - N/A   Clear
2:00 AM 64.4 °F 39.2 °F 40% 30.09 in - ENE 13.8 mph - N/A   Clear
3:00 AM 62.6 °F 44.6 °F 52% 30.09 in - ENE 10.4 mph - N/A   Clear
4:00 AM 60.8 °F 48.2 °F 63% 30.12 in - NE 13.8 mph - N/A   Clear
5:00 AM 59.0 °F 48.2 °F 67% 30.09 in - ENE 13.8 mph - N/A   Clear
6:00 AM 59.0 °F 50.0 °F 72% 30.09 in - NE 16.1 mph - N/A   Clear
7:00 AM 57.2 °F 48.2 °F 72% 30.18 in 6.2 mi West 4.6 mph - N/A   Mostly Cloudy
8:00 AM 59.0 °F 50.0 °F 72% 30.21 in 6.2 mi East 4.6 mph - N/A   Mostly Cloudy
9:00 AM 64.4 °F 50.0 °F 59% 30.21 in - NE 12.7 mph - N/A   Clear
10:00 AM 66.2 °F 51.8 °F 60% 30.21 in - NE 13.8 mph - N/A   Clear
11:00 AM 68.0 °F 50.0 °F 52% 30.21 in 6.2 mi NE 11.5 mph - N/A   Partly Cloudy
12:00 PM 71.6 °F 48.2 °F 43% 30.18 in 6.2 mi NNE 8.1 mph - N/A   Scattered Clouds
1:00 PM 75.2 °F 42.8 °F 31% 30.15 in 6.2 mi NW 8.1 mph - N/A   Scattered Clouds
2:00 PM 75.2 °F 39.2 °F 27% 30.12 in 6.2 mi WNW 5.8 mph - N/A   Partly Cloudy
3:00 PM 78.8 °F 33.8 °F 20% 30.09 in 6.2 mi NW 6.9 mph - N/A   Partly Cloudy
4:00 PM 77.0 °F 44.6 °F 32% 30.09 in 6.2 mi ENE 10.4 mph - N/A   Partly Cloudy
5:00 PM 75.2 °F 46.4 °F 36% 30.12 in 6.2 mi ENE 11.5 mph - N/A   Partly Cloudy
6:00 PM 71.6 °F 46.4 °F 41% 30.12 in - East 8.1 mph - N/A   Clear
7:00 PM 68.0 °F 48.2 °F 49% 30.15 in - East 8.1 mph - N/A   Clear
8:00 PM 64.4 °F 48.2 °F 56% 30.18 in - ENE 6.9 mph - N/A   Clear
9:00 PM 60.8 °F 48.2 °F 63% 30.21 in - ENE 3.5 mph - N/A   Clear
10:00 PM 62.6 °F 48.2 °F 59% 30.24 in - South 3.5 mph - N/A   Clear
11:00 PM 57.2 °F 48.2 °F 72% 30.24 in - Variable 1.2 mph - N/A   Clear